Hourly Data Report for October 11, 2019

All times are specified in Local Standard Time (LST). Add 1 hour to adjust for Daylight Saving Time where and when it is observed.

CORAL HARBOUR A
NUNAVUT
Current Station Operator: NAVCAN

64°11'36.000" N
83°21'34.000" W
62.20 m
2301002
71915
YZS

Download Data

Hourly Data (October 2019)
Hourly Data Report for October 11, 2019
TIME Temp Definition
°C
Dew Point Definition
°C
Rel Hum Definition
%
Wind Dir Definition
10's deg

Wind Spd Definition
km/h
Visibility Definition
km
Stn Press Definition
kPa
Hmdx Definition


Wind Chill Definition


Weather Definition


00:00 -1.9 -4.1 85 27 40 16.1 100.44   -10 Snow,Blowing Snow
01:00 -2.2 -3.8 89 27 41 19.3 100.51   -10 Snow,Blowing Snow
02:00 -2.0 -4.2 85 28 42 16.1 100.59   -10 Snow,Blowing Snow
03:00 -2.1 -5.3 79 28 42 19.3 100.66   -10 Snow,Blowing Snow
04:00 -2.1 -4.8 82 28 40 16.1 100.77   -10 Snow,Blowing Snow
05:00 -2.0 -4.6 82 28 40 19.3 100.82   -10 Snow,Blowing Snow
06:00 -2.0 -4.8 81 28 34 24.1 100.91   -10 Snow,Blowing Snow
07:00 -2.1 -4.5 83 27 35 24.1 101.01   -10 Snow,Blowing Snow
08:00 -2.4 -5.4 80 28 38 24.1 101.10   -10 LegendNANA
09:00 -2.6 -5.1 83 28 37 24.1 101.15   -11 LegendNANA
10:00 -2.4 -5.2 81 29 42 24.1 101.17   -11 Cloudy
11:00 -2.1 -5.1 80 28 46 24.1 101.23   -11 LegendNANA
12:00 -2.2 -5.0 81 27 40 24.1 101.29   -10 LegendNANA
13:00 -2.2 -4.9 82 30 24 24.1 101.37   -9 Cloudy
14:00 -2.3 -5.2 80 29 30 24.1 101.42   -9 LegendNANA
15:00 -2.2 -5.4 79 29 27 24.1 101.43   -9 LegendNANA
16:00 -2.4 -5.6 78 29 28 24.1 101.46   -9 Cloudy
17:00 -2.6 -6.1 77 30 22 24.1 101.49   -9 LegendNANA
18:00 -3.5 -6.8 78 30 27 24.1 101.54   -11 LegendNANA
19:00 -3.3 -6.6 78 31 17 24.1 101.54   -9 Mostly Cloudy
20:00 -3.2 -6.3 79 30 21 24.1 101.56   -9 LegendNANA
21:00 -4.4 -6.6 85 26 14 24.1 101.56   -10 LegendNANA
22:00 -3.7 -6.4 82 26 14 24.1 101.54   -9 Mostly Cloudy
23:00 -3.6 -5.2 88 25 14 24.1 101.51   -9 LegendNANA

Notes on Data Quality.

Legend

  • E = Estimated
  • M = Missing
  • NA = Not Available
Date modified: